User: anonymous   Login
Location: ??????????
(48.5701°N, 37.7703°E)
Time: 12:57:01
(UTC+00:00)
Language:

CZ-4B R/B - Orbit

View from above orbital plane
View from above orbital plane
View from above satellite
View from above satellite

Ground track
Ground track

The orbit data is extracted from the following two-line orbital elements,

1 29093U 06015B   20274.96783462  .00004034  00000-0  79173-4 0  9997
2 29093  97.6292  87.0071 0051601 300.5084  59.1076 15.46545191802892
Epoch (UTC): 30 September 2020 23:13:40
Eccentricity: 0.0051601
inclination: 97.6292°
perigee height: 392 km
apogee height: 462 km
right ascension of ascending node: 87.0071°
argument of perigee: 300.5084°
revolutions per day: 15.46545191
mean anomaly at epoch: 59.1076°
orbit number at epoch: 80289

The dashed part of the orbit path shows where the satellite is in the earth's shadow,  

DLR